COSMOS 1275 DEB, 15767

Orbit data source: Space-Track

COSMOS 1275 DEB, 15767 is space debris in LEO originally from a launch on Thu, 04 Jun 1981 UTC launched from the Plesetsk Missile And Space Complex (PKMTR). Debris objects in space refer to the collection of defunct objects orbiting the Earth. Examples of debris include non-operational satellites, rocket bodies, and fragments generated from explosions, collisions, or faulty payload assembly.

Loading next visibility...
Identifier
15767, 1981-053KC
Orbit
LEO
Country
Flag of CISCIS
Related business
Manufacturer
Unknown
Mission
Spacecraft
Bus & Motor
Unknown
Mass
Unknown
Launch date (UTC)
1981-06-04 (45 years ago)
Launch vehicle
Unknown
Launch site
Plesetsk Missile And Space Complex (PKMTR)
Object type
Payload
Rocket body
Debris
Shape & HBR
Unknown shape, 0.1 m
Radar Cross Section
Small (<0.1 m²)

Expand to show TLE details & history
Last TLE update: 12 hours ago

TLE from 12 hours ago
0 COSMOS 1275 DEB
1 15767U 81053KC  26062.13513644  .00048845  00000-0  49056-2 0  9991
2 15767  82.8901 323.1644 0007159  53.6237 306.5642 14.91022495102654
Epoch: 2026-03-03T03:14Z
TLE epoch observation values (Epoch: 2026-03-03T03:14:35.788Z)
Latitude
-0.00008°
Longitude
113.59673°
Altitude
594.833 km
Speed
7.564 km/s
True Right ascension
21h 32m 39s
True Declination
0° 00' 00"
Sunlit
Object was in daylight at epoch
Visualization orbit readout
Latitude
Unknown
Longitude
Unknown
Altitude
Unknown
Speed
Unknown
Apparent Right ascension
Unknown
Apparent Declination
Unknown
Sunlit
N/A
Visualization observer readout
Local Sidereal Time
18:32:21
Azimuth
Unknown
Elevation
Unknown
Doppler factor
Unknown
Orbital elements
Apogee altitude
596.728 km
Perigee altitude
586.749 km
Semi-major axis
6,969.875 km
Eccentricity
0.00072
Inclination
82.8901°
RAAN
323.1644°
Arg. of periapsis
53.6237°
True anomaly
306.49827°
Mean anomaly
306.5642°
Eccentric anomaly
306.53124°
Mean motion
3.72997 °/min
Orbital period
96.52 mins
BSTAR
0.0049056
Loading maneuver chart data...
Computing Atmospheric mass density...
Loading historical data...
Loading historical data...
Loading historical data...
Loading historical data...
Loading historical data...
Loading historical data...
Loading historical data...

Documentation

Showing up to 5 results
|